User: anonymous   Login
Location: Waldport
(44.4270°N, 124.0680°W)
Time: 19:36:53
(UTC-07:00)
Language:

Cosmos 1570 Rocket - Orbit

View from above orbital plane
View from above orbital plane
View from above satellite
View from above satellite

Ground track
Ground track

The orbit data is extracted from the following two-line orbital elements,

1 15032U 84056B   15214.19636645  .00000149  00000-0  61780-4 0  9997
2 15032 074.0699 248.2860 0018226 226.6931 193.6211 14.34590788628699
Epoch (UTC): 02 August 2015 04:42:46
Eccentricity: 0.0018226
inclination: 74.0699°
perigee height: 763 km
apogee height: 789 km
right ascension of ascending node: 248.2860°
argument of perigee: 226.6931°
revolutions per day: 14.34590788
mean anomaly at epoch: 193.6211°
orbit number at epoch: 62869

The dashed part of the orbit path shows where the satellite is in the earth's shadow,  

DLR